EW6135 Weather Reports


Display with metric or nautical units.
time (UTC)temp
F
wind
direction
speed
MPH
gust
MPH
rain 1hr
in
rain 24hr
in
rain mn
in
humidity
%
barometer
mb
20260507051625 71 266 1.0 8.0 0.00 0.02 0.00 91 1012.7
20260507051026 71 238 2.0 8.0 0.00 0.02 0.00 91 1012.7
20260507050527 71 248 2.0 9.0 0.00 0.02 0.00 91 1012.7
20260507050037 71 233 0.0 9.0 0.00 0.02 0.00 91 1012.8
20260507045524 71 243 0.0 6.0 0.00 0.02 0.00 91 1012.8
20260507045027 71 68 1.0 8.0 0.00 0.02 0.00 90 1012.8
20260507044524 71 276 2.0 8.0 0.00 0.02 0.00 91 1012.8
20260507044023 71 237 3.0 8.0 0.00 0.02 0.00 91 1012.9
20260507043523 71 260 4.0 8.0 0.00 0.02 0.00 91 1013.0
20260507043021 71 290 3.0 10.0 0.00 0.02 0.00 91 1013.1
20260507042522 71 225 2.0 10.0 0.00 0.02 0.00 90 1013.0
20260507042021 71 245 2.0 8.0 0.00 0.02 0.00 90 1012.8
20260507041620 71 316 3.0 9.0 0.00 0.02 0.00 90 1012.9
20260507041022 71 245 3.0 9.0 0.00 0.02 0.00 90 1012.9
20260507040520 71 286 1.0 6.0 0.00 0.02 0.00 89 1013.0
20260507040019 71 266 1.0 8.0 0.00 0.02 0.00 89 1012.9
20260507035518 71 267 2.0 10.0 0.00 0.02 0.02 89 1012.9
20260507035018 71 255 5.0 10.0 0.00 0.02 0.02 89 1013.1
20260507034518 71 257 3.0 11.0 0.00 0.02 0.02 89 1013.1
20260507034019 71 273 3.0 6.0 0.00 0.02 0.02 88 1013.1
20260507033519 71 262 3.0 11.0 0.00 0.02 0.02 88 1013.1
20260507033020 71 287 2.0 10.0 0.00 0.02 0.02 88 1013.1
20260507032517 71 293 3.0 7.0 0.00 0.02 0.02 88 1013.1
20260507032017 71 231 3.0 7.0 0.00 0.02 0.02 88 1013.1
20260507031617 71 254 2.0 8.0 0.00 0.02 0.02 88 1013.2
20260507031018 71 275 1.0 11.0 0.00 0.02 0.02 87 1013.2
20260507030519 71 238 0.0 11.0 0.00 0.02 0.02 87 1013.1
20260507030026 71 234 3.0 10.0 0.00 0.02 0.02 87 1013.1
20260507025517 71 238 2.0 11.0 0.00 0.02 0.02 87 1013.2
20260507025017 71 215 3.0 10.0 0.00 0.02 0.02 87 1013.2
20260507024524 71 257 1.0 11.0 0.00 0.02 0.02 87 1013.4
20260507024016 71 217 3.0 11.0 0.00 0.02 0.02 86 1013.2
20260507023516 71 257 2.0 8.0 0.00 0.02 0.02 86 1013.2
20260507023017 71 227 3.0 9.0 0.00 0.02 0.02 86 1013.2
20260507022516 71 176 2.0 10.0 0.00 0.02 0.02 85 1013.2
20260507022016 71 141 2.0 11.0 0.00 0.02 0.02 85 1013.3
20260507021616 71 239 2.0 12.0 0.00 0.02 0.02 85 1013.3
20260507021018 71 229 1.0 12.0 0.00 0.02 0.02 85 1013.3
20260507020518 71 217 3.0 12.0 0.00 0.02 0.02 84 1013.4
20260507020018 71 272 2.0 6.0 0.00 0.02 0.02 84 1013.4
20260507015521 71 219 1.0 8.0 0.00 0.02 0.02 84 1013.4
20260507015015 71 252 3.0 7.0 0.00 0.02 0.02 83 1013.3
20260507014515 71 191 3.0 7.0 0.00 0.02 0.02 83 1013.4
20260507014015 71 275 2.0 7.0 0.00 0.02 0.02 83 1013.5
20260507013516 71 183 2.0 7.0 0.00 0.02 0.02 83 1013.5
20260507013016 71 206 1.0 7.0 0.00 0.02 0.02 83 1013.6
20260507012515 71 235 3.0 7.0 0.00 0.02 0.02 83 1013.4
20260507012014 71 275 2.0 10.0 0.00 0.02 0.02 83 1013.3
20260507011615 71 315 1.0 11.0 0.00 0.02 0.02 83 1013.3
20260507011013 71 233 3.0 11.0 0.00 0.02 0.02 83 1013.3
20260507010514 71 236 3.0 10.0 0.00 0.02 0.02 84 1013.3
20260507010017 71 260 3.0 10.0 0.00 0.02 0.02 84 1013.3
20260507005513 71 241 2.0 12.0 0.01 0.04 0.02 84 1013.4
20260507005013 71 208 2.0 12.0 0.01 0.04 0.02 84 1013.2
20260507004515 71 230 2.0 7.0 0.01 0.04 0.02 83 1013.1
20260507004013 71 259 1.0 7.0 0.01 0.04 0.02 82 1013.1
20260507003512 71 151 2.0 9.0 0.01 0.04 0.02 81 1013.2
20260507003012 71 240 3.0 11.0 0.01 0.04 0.02 81 1013.2
20260507002512 71 101 3.0 11.0 0.01 0.04 0.02 80 1013.2
20260507002016 71 70 1.0 11.0 0.01 0.04 0.02 78 1013.2
20260507001613 71 274 3.0 8.0 0.01 0.04 0.02 76 1013.2
20260507001014 71 280 1.0 8.0 0.01 0.04 0.02 76 1013.2
20260507000513 71 217 2.0 10.0 0.01 0.04 0.02 76 1013.0
20260507000012 72 257 3.0 10.0 0.01 0.04 0.02 75 1013.0
20260506235513 72 250 2.0 10.0 0.01 0.04 0.02 75 1013.1
20260506235011 72 255 3.0 10.0 0.00 0.03 0.01 75 1013.0
20260506234512 72 184 3.0 13.0 0.00 0.03 0.01 75 1013.1
20260506234012 72 251 2.0 13.0 0.00 0.03 0.01 74 1013.1
20260506233514 73 234 3.0 11.0 0.00 0.03 0.01 74 1013.0
20260506233013 73 207 3.0 11.0 0.00 0.03 0.01 74 1012.9
20260506232512 73 233 0.0 11.0 0.00 0.03 0.01 74 1013.0
20260506232013 73 257 4.0 9.0 0.00 0.03 0.01 73 1012.9
20260506231612 73 286 0.0 9.0 0.00 0.03 0.01 72 1012.9
20260506231012 73 250 1.0 9.0 0.00 0.03 0.01 72 1013.0
20260506230509 73 257 2.0 13.0 0.00 0.03 0.01 72 1013.1
20260506230018 73 184 2.0 13.0 0.00 0.03 0.01 71 1013.2
20260506225509 73 269 3.0 16.0 0.00 0.03 0.01 71 1013.1
20260506225009 73 233 7.0 16.0 0.00 0.03 0.01 70 1013.0
20260506224510 73 217 4.0 12.0 0.00 0.03 0.01 70 1012.9
20260506224008 73 307 3.0 13.0 0.00 0.03 0.01 70 1012.9
20260506223508 73 218 4.0 13.0 0.00 0.03 0.01 70 1012.9
20260506223008 73 219 3.0 9.0 0.00 0.03 0.01 70 1013.0
20260506222508 73 309 2.0 15.0 0.00 0.03 0.01 71 1013.4
20260506222008 73 260 3.0 15.0 0.00 0.03 0.01 71 1013.4
20260506221636 73 281 5.0 15.0 0.00 0.03 0.01 70 1013.3
20260506221009 73 239 2.0 8.0 0.00 0.03 0.01 70 1013.2
20260506220510 74 280 2.0 13.0 0.00 0.03 0.01 71 1013.0
20260506220015 74 241 4.0 13.0 0.00 0.03 0.01 70 1012.9
20260506215512 74 241 2.0 10.0 0.00 0.03 0.01 72 1012.9
20260506215008 74 271 4.0 11.0 0.00 0.03 0.01 72 1013.0
20260506214509 74 260 4.0 9.0 0.00 0.03 0.01 72 1012.9
20260506214009 75 269 1.0 9.0 0.00 0.03 0.01 72 1012.7
20260506213507 75 124 2.0 8.0 0.00 0.03 0.01 71 1012.6
20260506213006 75 230 1.0 16.0 0.00 0.03 0.01 72 1012.6
20260506212504 76 221 4.0 15.0 0.00 0.03 0.01 72 1013.1
20260506212002 76 268 6.0 13.0 0.00 0.03 0.01 72 1013.5
20260506211603 77 200 6.0 15.0 0.00 0.03 0.01 73 1013.9
20260506211004 77 243 5.0 14.0 0.00 0.03 0.01 73 1014.0
20260506210503 77 221 4.0 13.0 0.00 0.03 0.01 73 1014.0
20260506210005 77 255 4.0 16.0 0.00 0.03 0.01 74 1013.8
20260506205502 77 208 7.0 21.0 0.00 0.03 0.01 74 1013.7
20260506205003 77 240 5.0 21.0 0.00 0.03 0.01 74 1013.5
20260506204502 78 198 6.0 18.0 0.00 0.03 0.01 74 1013.7
20260506204004 78 233 6.0 22.0 0.00 0.03 0.01 74 1013.9
20260506203501 78 223 5.0 22.0 0.00 0.03 0.01 75 1014.0
20260506203001 78 235 7.0 14.0 0.00 0.03 0.01 75 1013.8
20260506202601 78 143 5.0 26.0 0.00 0.03 0.01 75 1013.8
20260506202101 78 94 6.0 26.0 0.00 0.03 0.01 75 1013.9
20260506201600 79 213 2.0 15.0 0.00 0.03 0.01 77 1014.0
20260506201059 79 294 1.0 15.0 0.00 0.03 0.01 77 1013.9
20260506200602 78 181 5.0 17.0 0.00 0.03 0.01 76 1014.1
20260506200059 78 243 5.0 17.0 0.00 0.03 0.01 76 1014.2
20260506195559 78 244 7.0 17.0 0.00 0.03 0.01 76 1014.1
20260506195059 78 271 6.0 19.0 0.00 0.03 0.01 76 1014.1
20260506194559 79 243 3.0 15.0 0.00 0.03 0.01 76 1014.1
20260506194058 79 192 5.0 18.0 0.00 0.03 0.01 76 1014.2
20260506193558 78 265 6.0 20.0 0.00 0.03 0.01 76 1014.2
20260506193059 78 255 5.0 15.0 0.00 0.03 0.01 76 1014.3
20260506192556 78 237 7.0 17.0 0.00 0.03 0.01 77 1014.3
20260506192057 78 237 8.0 23.0 0.00 0.03 0.01 76 1014.4
20260506191608 78 239 7.0 19.0 0.00 0.03 0.01 76 1014.6
20260506191056 78 254 8.0 19.0 0.00 0.03 0.01 75 1014.5
20260506190556 78 229 8.0 17.0 0.00 0.03 0.01 76 1014.6
20260506190057 77 269 5.0 17.0 0.00 0.03 0.01 77 1014.7
20260506185555 77 290 7.0 17.0 0.00 0.03 0.01 76 1014.6
20260506185055 78 254 7.0 14.0 0.00 0.03 0.01 74 1014.6
20260506184615 78 88 2.0 12.0 0.00 0.03 0.01 75 1014.6
20260506184056 77 217 2.0 14.0 0.00 0.03 0.01 78 1014.8
20260506183558 77 291 7.0 15.0 0.00 0.03 0.01 77 1014.8
20260506183057 77 243 5.0 15.0 0.00 0.03 0.01 76 1014.7
20260506182554 77 288 7.0 13.0 0.00 0.03 0.01 74 1014.7
20260506182054 78 222 4.0 13.0 0.00 0.03 0.01 74 1014.6
20260506181553 79 218 4.0 19.0 0.00 0.03 0.01 75 1014.8
20260506181053 79 151 6.0 19.0 0.00 0.03 0.01 75 1014.8
20260506180552 79 179 7.0 19.0 0.00 0.03 0.01 74 1014.9
20260506180052 79 113 5.0 15.0 0.00 0.03 0.01 73 1014.8
20260506175552 78 274 7.0 18.0 0.00 0.03 0.01 73 1015.1
20260506175050 79 193 7.0 18.0 0.00 0.03 0.01 72 1015.0
20260506174549 80 197 5.0 13.0 0.00 0.03 0.01 72 1015.4
20260506174049 80 248 6.0 17.0 0.00 0.03 0.01 73 1015.3
20260506173549 79 223 4.0 17.0 0.00 0.03 0.01 73 1015.5
20260506173050 80 272 4.0 17.0 0.00 0.03 0.01 72 1015.6
20260506172549 80 245 3.0 17.0 0.00 0.03 0.01 73 1015.5
20260506172048 79 218 2.0 14.0 0.00 0.03 0.01 75 1015.5
20260506171556 79 263 6.0 16.0 0.00 0.03 0.01 74 1015.6
20260506171047 79 158 6.0 16.0 0.00 0.03 0.01 73 1015.6
20260506170545 79 270 4.0 15.0 0.00 0.03 0.01 75 1015.6
20260506170051 79 269 7.0 16.0 0.00 0.03 0.01 73 1015.6
20260506165545 79 252 4.0 20.0 0.00 0.03 0.01 72 1015.7
20260506165045 79 205 4.0 18.0 0.00 0.03 0.01 75 1015.7
20260506164547 78 271 5.0 17.0 0.00 0.03 0.01 71 1015.7
20260506164045 78 260 6.0 17.0 0.00 0.03 0.01 73 1015.8
20260506163544 79 297 4.0 12.0 0.00 0.03 0.01 73 1016.0
20260506163043 78 190 3.0 15.0 0.00 0.03 0.01 75 1016.0
20260506162542 77 243 7.0 15.0 0.00 0.03 0.01 74 1016.2
20260506162042 78 264 8.0 21.0 0.00 0.03 0.01 74 1016.4
20260506161544 78 216 3.0 21.0 0.00 0.03 0.01 74 1016.2
20260506161042 78 206 3.0 21.0 0.00 0.03 0.01 75 1016.1
20260506160542 78 161 5.0 21.0 0.00 0.03 0.01 72 1016.1
20260506160057 78 266 5.0 13.0 0.00 0.03 0.01 73 1016.0
20260506155542 78 294 3.0 14.0 0.00 0.03 0.01 73 1016.1
20260506155042 78 243 5.0 14.0 0.00 0.03 0.01 72 1016.2
20260506154541 79 248 5.0 18.0 0.00 0.03 0.01 72 1016.2
20260506154041 78 221 6.0 18.0 0.00 0.03 0.01 74 1016.1
20260506153544 78 272 5.0 13.0 0.00 0.03 0.01 73 1016.2
20260506153041 77 248 7.0 13.0 0.00 0.03 0.01 75 1016.3
20260506152544 77 255 5.0 11.0 0.00 0.03 0.01 77 1016.4
20260506152040 76 221 5.0 17.0 0.00 0.03 0.01 77 1016.3
20260506151542 76 233 6.0 13.0 0.00 0.03 0.01 76 1016.4
20260506151039 76 230 7.0 13.0 0.00 0.03 0.01 76 1016.3
20260506150539 76 218 3.0 10.0 0.00 0.03 0.01 77 1016.3
20260506150039 77 223 4.0 9.0 0.00 0.03 0.01 76 1016.4
20260506145539 77 202 5.0 9.0 0.00 0.03 0.01 75 1016.4
20260506145039 77 234 3.0 16.0 0.00 0.03 0.01 75 1016.3
20260506144552 77 297 7.0 16.0 0.00 0.03 0.01 74 1016.5
20260506144038 78 248 4.0 15.0 0.00 0.03 0.01 74 1016.5
20260506143538 78 301 4.0 15.0 0.00 0.03 0.01 73 1016.5
20260506143037 78 245 2.0 13.0 0.00 0.03 0.01 74 1016.4
20260506142535 77 244 3.0 13.0 0.00 0.03 0.01 74 1016.4
20260506142035 77 270 4.0 10.0 0.00 0.03 0.01 73 1016.3
20260506141535 77 328 3.0 16.0 0.00 0.03 0.01 73 1016.3
20260506141035 77 168 3.0 16.0 0.00 0.03 0.01 76 1016.5
20260506140535 77 293 5.0 16.0 0.00 0.03 0.01 74 1016.4
20260506140036 77 231 5.0 14.0 0.00 0.03 0.01 73 1016.5
20260506135534 77 107 3.0 12.0 0.00 0.03 0.01 73 1016.4
20260506135033 77 256 2.0 13.0 0.00 0.03 0.01 74 1016.2
20260506134534 77 91 3.0 13.0 0.00 0.03 0.01 74 1016.1
20260506134033 77 248 1.0 12.0 0.00 0.03 0.01 75 1016.1
20260506133534 76 291 3.0 13.0 0.00 0.03 0.01 74 1016.3
20260506133034 77 250 3.0 13.0 0.00 0.03 0.01 75 1016.6
20260506132534 76 219 4.0 12.0 0.00 0.03 0.01 76 1016.5
20260506132031 76 248 2.0 12.0 0.00 0.03 0.01 76 1016.5
20260506131537 76 259 3.0 9.0 0.00 0.03 0.01 77 1016.4
20260506131032 76 283 2.0 6.0 0.00 0.03 0.01 77 1016.4
20260506130529 76 244 1.0 9.0 0.00 0.03 0.01 78 1016.2
20260506130027 75 311 3.0 10.0 0.00 0.03 0.01 79 1016.1
20260506125525 75 265 3.0 10.0 0.00 0.03 0.01 79 1016.1
20260506125025 75 231 3.0 10.0 0.00 0.03 0.01 79 1016.1
20260506124528 74 220 1.0 10.0 0.00 0.03 0.01 80 1016.1
20260506124026 73 277 0.0 10.0 0.00 0.03 0.01 81 1016.0
20260506123523 74 263 1.0 8.0 0.00 0.03 0.01 80 1016.0
20260506123021 73 167 0.0 8.0 0.00 0.03 0.01 82 1016.0
20260506122520 72 238 1.0 3.0 0.00 0.03 0.01 84 1016.1
20260506122023 71 274 0.0 6.0 0.00 0.03 0.01 84 1016.0
20260506121518 72 292 1.0 4.0 0.00 0.03 0.01 85 1016.1
20260506121018 71 71 1.0 4.0 0.00 0.03 0.01 86 1016.1
20260506120522 70 260 1.0 4.0 0.00 0.03 0.01 87 1016.1
20260506120019 69 231 1.0 4.0 0.00 0.03 0.01 90 1016.2
20260506115515 68 245 1.0 4.0 0.00 0.03 0.01 93 1016.2
20260506115012 66 213 0.0 1.0 0.00 0.03 0.01 97 1016.1
20260506114529 65 219 0.0 1.0 0.00 0.03 0.01 97 1016.2
20260506114012 64 32 0.0 1.0 0.00 0.03 0.01 98 1016.2
20260506113514 63 311 0.0 0.0 0.00 0.03 0.01 98 1016.4
20260506113013 63 311 0.0 1.0 0.00 0.03 0.01 98 1016.4
20260506112514 62 74 0.0 0.0 0.00 0.03 0.01 98 1016.4
20260506112012 62 74 0.0 1.0 0.00 0.03 0.01 98 1016.2
20260506111511 61 74 0.0 1.0 0.00 0.03 0.01 98 1016.1
20260506111015 60 74 0.0 1.0 0.00 0.03 0.01 98 1016.1
20260506110514 60 74 0.0 1.0 0.00 0.03 0.01 98 1016.2
20260506110012 59 74 0.0 0.0 0.01 0.03 0.01 98 1016.2
20260506105517 58 74 0.0 0.0 0.01 0.03 0.01 98 1016.0
20260506105011 57 74 0.0 0.0 0.01 0.03 0.01 97 1016.0
20260506104510 57 74 0.0 0.0 0.01 0.03 0.01 97 1016.0
20260506104010 57 74 0.0 0.0 0.01 0.03 0.01 97 1016.1
20260506103512 57 74 0.0 0.0 0.01 0.03 0.01 97 1016.1
20260506103009 57 74 0.0 0.0 0.01 0.03 0.01 97 1016.0
20260506102512 57 74 0.0 0.0 0.01 0.03 0.01 97 1016.0
20260506102010 57 74 0.0 0.0 0.01 0.03 0.01 97 1016.0
20260506101508 57 74 0.0 0.0 0.01 0.03 0.01 96 1015.8
20260506101007 57 74 0.0 0.0 0.01 0.03 0.01 96 1015.8
20260506100507 57 74 0.0 0.0 0.01 0.03 0.01 96 1015.9
20260506100020 57 74 0.0 0.0 0.01 0.03 0.01 96 1015.8
20260506095506 57 74 0.0 0.0 0.00 0.02 0.00 96 1015.9
20260506095009 57 74 0.0 0.0 0.00 0.02 0.00 96 1016.0
20260506094505 57 74 0.0 0.0 0.00 0.02 0.00 96 1015.9
20260506094004 58 74 0.0 0.0 0.00 0.02 0.00 96 1015.8
20260506093503 58 74 0.0 0.0 0.00 0.02 0.00 96 1015.7
20260506093003 58 74 0.0 0.0 0.00 0.02 0.00 96 1015.7
20260506092504 58 74 0.0 1.0 0.00 0.02 0.00 95 1015.9
20260506092002 59 74 0.0 1.0 0.00 0.02 0.00 95 1015.8
20260506091502 59 74 0.0 0.0 0.00 0.02 0.00 94 1015.6
20260506091001 59 74 0.0 0.0 0.00 0.02 0.00 94 1015.6
20260506090600 59 74 0.0 0.0 0.00 0.02 0.00 94 1015.7
20260506090100 59 74 0.0 0.0 0.00 0.02 0.00 94 1015.7
20260506085559 60 74 0.0 0.0 0.00 0.02 0.00 94 1015.8
20260506085057 60 74 0.0 0.0 0.00 0.02 0.00 93 1015.8
20260506084603 60 74 0.0 1.0 0.00 0.02 0.00 93 1015.9
20260506084058 60 255 0.0 0.0 0.00 0.02 0.00 93 1015.9
20260506083556 61 255 0.0 0.0 0.00 0.02 0.00 92 1015.8
20260506083056 61 255 0.0 0.0 0.00 0.02 0.00 92 1015.8
20260506082555 61 255 0.0 0.0 0.00 0.02 0.00 93 1015.7
20260506082055 61 255 0.0 0.0 0.00 0.02 0.00 93 1015.9
20260506081555 61 255 0.0 0.0 0.00 0.02 0.00 94 1015.9
20260506080556 61 255 0.0 0.0 0.00 0.02 0.00 93 1015.7
20260506073047 62 255 0.0 1.0 0.00 0.02 0.00 91 1016.0
20260506072546 62 255 0.0 0.0 0.00 0.02 0.00 91 1016.1
20260506072045 63 255 0.0 0.0 0.00 0.02 0.00 90 1016.1
20260506071552 63 255 0.0 0.0 0.00 0.02 0.00 89 1016.1
20260506070550 63 255 0.0 0.0 0.00 0.02 0.00 89 1016.2
20260506062041 65 139 0.0 3.0 0.00 0.02 0.00 86 1015.9
20260506061540 65 124 0.0 1.0 0.00 0.02 0.00 85 1016.2
20260506060539 65 124 0.0 1.0 0.00 0.02 0.00 85 1016.3